Flag for Sweden Weather past 2 weeks in Stockholm, Sweden

Now
45 °F

Quite cool.


Feels Like: 45 °F
Forecast: 51 / 62 °F
Wind: 2 mph from Northwest

Location: Stockholm Bromma Airport

Current Time: Aug 30, 2014 at 3:20:56 AM

Latest Report: Aug 30, 2014 at 2:50 AM


Visibility: 3 mi

Pressure: 30.01 "Hg

Humidity: 100%

Dew point: 45 °F

Location of StockholmLocation

Historic Weather in Stockholm — Graph

°F

Stockholm temperature yesterday

Maximum temperature yesterday: 64 °F (at 2:50 PM)
Minimum temperature yesterday: 50 °F (at 11:20 PM)
Average temperature yesterday: 58 °F

Past Weeks' High & Low Weather Summary

 TemperatureHumidityPressure
High72 °F (Aug 15, 4:20 PM)100% (Aug 15, 2:20 AM)30.01 "Hg (Aug 15, 2:20 AM)
Low45 °F (Aug 25, 4:20 AM)46% (Aug 16, 3:20 PM)29.30 "Hg (Aug 18, 6:50 PM)
Average58 °F80%29.63 "Hg
* Reported Aug 15 2:20 AM — Aug 30 2:20 AM, Stockholm, Weather by CustomWeather, © 2014

Note: Actual official high and low records may vary slightly from our data, if they occured in-between our weather recording intervals... More about our weather records

Advertising

Stockholm weather history for previous 24 hours

 ConditionsComfort  
Time TempWeatherWind HumidityBarometerVisibility
2:20 AM
Aug 30
45 °FLight fog.2 mph100%30.01 "Hg1 mi
1:50 AM45 °FLight fog.2 mph100%30.01 "Hg1 mi
1:20 AM46 °FFog.2 mph100%30.01 "Hg4 mi
12:50 AM46 °FFog.1 mph100%30.01 "Hg1 mi
12:20 AM48 °FFog.2 mph100%30.01 "Hg4 mi
11:50 PM
Aug 29
50 °FPassing clouds.2 mph94%30.01 "HgN/A
11:20 PM50 °FCool.2 mph94%30.01 "HgN/A
9:20 PM55 °FPassing clouds.6 mph88%30.01 "HgN/A
8:50 PM55 °FScattered clouds.5 mph88%30.01 "HgN/A
8:20 PM57 °FBroken clouds.5 mph88%30.01 "HgN/A
7:50 PM57 °FPassing clouds.3 mph88%29.98 "HgN/A
7:20 PM57 °FPassing clouds.2 mph88%29.98 "HgN/A
6:50 PM57 °FSprinkles. Partly sunny.6 mph88%29.98 "HgN/A
6:20 PM59 °FBroken clouds.7 mph82%29.98 "HgN/A
5:50 PM61 °FScattered showers. Partly sunny.3 mph77%29.98 "HgN/A
5:20 PM59 °FPartly sunny.2 mph77%29.98 "HgN/A
4:50 PM55 °FPartly sunny.2 mph88%29.98 "HgN/A
4:20 PM57 °FLots of rain. Partly sunny.8 mph82%29.98 "Hg1 mi
3:50 PM61 °FScattered showers. Partly sunny.7 mph77%29.98 "HgN/A
3:20 PM64 °FScattered showers. Scattered clouds.7 mph64%29.98 "HgN/A
2:50 PM64 °FScattered clouds.5 mph64%29.98 "HgN/A
2:20 PM63 °FPassing clouds.6 mph73%29.98 "HgN/A
1:50 PM63 °FPassing clouds.6 mph73%29.98 "HgN/A
1:20 PM59 °FScattered clouds.8 mph77%29.98 "HgN/A
12:50 PM61 °FDrizzle. Broken clouds.6 mph68%29.98 "HgN/A
12:20 PM63 °FMore clouds than sun.9 mph68%29.98 "HgN/A
11:50 AM61 °FPassing clouds.7 mph72%29.98 "HgN/A
11:20 AM61 °FScattered clouds.7 mph68%29.98 "HgN/A
10:50 AM61 °FScattered clouds.8 mph72%29.98 "HgN/A
10:20 AM61 °FScattered clouds.7 mph72%29.98 "HgN/A
9:50 AM61 °FScattered clouds.8 mph77%29.98 "HgN/A
9:20 AM59 °FMore clouds than sun.7 mph77%29.98 "HgN/A
8:50 AM57 °FOvercast.7 mph88%29.98 "HgN/A
8:20 AM57 °FOvercast.7 mph82%29.98 "HgN/A
7:50 AM55 °FPartly sunny.7 mph88%29.98 "HgN/A
7:20 AM55 °FPartly sunny.7 mph88%29.98 "HgN/A
6:50 AM55 °FBroken clouds.7 mph88%29.98 "HgN/A
6:20 AM55 °FMostly cloudy.6 mph88%29.98 "HgN/A
5:50 AM55 °FPartly cloudy.5 mph88%29.95 "HgN/A
5:20 AM55 °FMostly cloudy.6 mph88%29.95 "HgN/A
4:50 AM55 °FOvercast.7 mph88%29.98 "HgN/A
4:20 AM55 °FOvercast.7 mph88%29.95 "HgN/A
3:50 AM55 °FMostly cloudy.7 mph88%29.95 "HgN/A
3:20 AM55 °FMostly cloudy.8 mph88%29.95 "HgN/A
Weather by CustomWeather, © 2014

See weather overviewHow to use our weather pages